Location: Brede
(50.9167°N, 0.6000°E)
Time: 19:46:33
(UTC+00:00)

Altair - Pass Details

Date: 07 August 2021
Orbit: 1501 x 1682 km, 47.2° (Epoch: 22 September)

Event Time Altitude Azimuth Distance (km) Brightness Sun altitude
Exits shadow 01:32:22 19° 240° (WSW) 3,094 8.6 -19.9°
Maximum altitude 01:39:32 65° 165° (SSE) 1,662 7.4 -19.5°
Drops below altitude 10° 01:48:35 10° 86° (E) 3,663 9.9 -18.9°
Sets 01:51:37 0° 84° (E) 4,639 10.5 -18.6°
